Raleigh, NC

4:29 PM EDT on September 27, 2016 (GMT -0400)
Raleigh-Durham International

Weather History for KRDU - January, 2013

Change the Weather History Date:

Saturday, January 5, 2013

  Actual Average Record
Temperature  
Mean Temperature 37 °F 40 °F  
Max Temperature 49 °F 50 °F 76 °F (1950)
Min Temperature 25 °F 31 °F 6 °F (1981)
Degree Days  
Heating Degree Days 28 24  
Month to date heating degree days 120 120  
Since 1 July heating degree days 1297 1371  
Cooling Degree Days 0 0  
Month to date cooling degree days 0 0  
Year to date cooling degree days 0 0  
Moisture  
Dew Point 23 °F    
Average Humidity 58    
Maximum Humidity 81    
Minimum Humidity 34    
Precipitation  
Precipitation 0.00 in 0.11 in 1.75 in (1889)
Month to date precipitation 0.45 0.53  
Year to date precipitation 0.45 0.53  
Snow  
Snow 0.00 in 0.00 in 2.50 in (1887)
Month to date snowfall 0.0 0.3  
Since 1 July snowfall 0.0 1.0  
Snow Depth 0.00 in    
Sea Level Pressure  
Sea Level Pressure 30.32 in    
Wind  
Wind Speed 2 mph (SW)    
Max Wind Speed 8 mph    
Max Gust Speed 10 mph    
Visibility 10 miles    
Events      
T = Trace of Precipitation, MM = Missing Value Source: NWS Daily Summary

Daily Weather History Graph

Daily Weather History Graph

Search for Another Location

Airport or City:

Trip Planner

Search our weather history database for the weather conditions in past years. The results will help you decide how hot, cold, wet, or windy it might be!

Date:

Astronomy

Jan. 05, 2013 Rise Set
Actual Time 7:25 AM EST 5:15 PM EST
Civil Twilight 6:57 AM EST 5:43 PM EST
Nautical Twilight 6:25 AM EST 6:15 PM EST
Astronomical Twilight 5:54 AM EST 6:46 PM EST
Moon 12:37 AM EST (1/5) 11:58 AM EST (1/5)
Length of Visible Light 10h 46m
Length of Day
9h 49m
Last Quarter, 44% of the Moon is Illuminated
Jan 5
Last Quarter
Jan 11
New
Jan 18
First Quarter
Jan 26
Full
Feb 3
Last Quarter

Hourly Weather History & Observations

Time (EST) Temp. Windchill Dew Point Humidity Pressure Visibility Wind Dir Wind Speed Gust Speed Precip Events Conditions
12:51 AM 30.0 °F 25.2 °F 19.9 °F 66% 30.29 in 10.0 mi West 4.6 mph - N/A   Clear
1:51 AM 30.0 °F - 19.9 °F 66% 30.30 in 10.0 mi Calm Calm - N/A   Clear
2:51 AM 32.0 °F 27.5 °F 19.9 °F 61% 30.30 in 10.0 mi West 4.6 mph - N/A   Clear
3:51 AM 30.9 °F 27.5 °F 19.9 °F 64% 30.32 in 10.0 mi West 3.5 mph - N/A   Clear
4:51 AM 30.2 °F - 19.4 °F 64% 30.30 in 10.0 mi Calm Calm - N/A   Clear
5:51 AM 28.9 °F 23.9 °F 19.9 °F 69% 30.34 in 10.0 mi West 4.6 mph - N/A   Partly Cloudy
6:51 AM 26.6 °F - 19.4 °F 74% 30.31 in 10.0 mi Calm Calm - N/A   Partly Cloudy
7:51 AM 25.0 °F - 19.9 °F 81% 30.36 in 10.0 mi Calm Calm - N/A   Partly Cloudy
8:51 AM 33.1 °F - 23.0 °F 66% 30.37 in 10.0 mi Calm Calm - N/A   Scattered Clouds
9:51 AM 37.4 °F - 21.2 °F 52% 30.38 in 10.0 mi Calm Calm - N/A   Mostly Cloudy
10:51 AM 42.1 °F - 23.0 °F 47% 30.39 in 10.0 mi Calm Calm - N/A   Mostly Cloudy
11:51 AM 45.0 °F - 21.9 °F 40% 30.38 in 10.0 mi Calm Calm - N/A   Mostly Cloudy
12:51 PM 48.0 °F - 23.0 °F 37% 30.34 in 10.0 mi Calm Calm - N/A   Mostly Cloudy
1:51 PM 48.0 °F - 21.9 °F 36% 30.31 in 10.0 mi Calm Calm - N/A   Mostly Cloudy
2:51 PM 48.0 °F - 21.9 °F 36% 30.30 in 10.0 mi Variable 3.5 mph - N/A   Mostly Cloudy
3:51 PM 48.0 °F - 21.9 °F 36% 30.31 in 10.0 mi SSE 4.6 mph - N/A   Mostly Cloudy
4:51 PM 46.0 °F - 23.0 °F 40% 30.31 in 10.0 mi Calm Calm - N/A   Mostly Cloudy
5:51 PM 42.8 °F 40.1 °F 26.6 °F 53% 30.29 in 10.0 mi South 4.6 mph - N/A   Mostly Cloudy
6:51 PM 39.9 °F - 26.1 °F 58% 30.30 in 10.0 mi Calm Calm - N/A   Mostly Cloudy
7:51 PM 39.0 °F - 27.0 °F 62% 30.31 in 10.0 mi Calm Calm - N/A   Mostly Cloudy
8:51 PM 39.0 °F - 27.0 °F 62% 30.29 in 10.0 mi Calm Calm - N/A   Mostly Cloudy
9:51 PM 39.9 °F - 27.0 °F 60% 30.30 in 10.0 mi Calm Calm - N/A   Overcast
10:51 PM 41.0 °F 35.8 °F 27.0 °F 57% 30.29 in 10.0 mi SSW 8.1 mph - N/A   Mostly Cloudy
11:51 PM 42.1 °F 37.7 °F 28.0 °F 58% 30.27 in 10.0 mi SW 6.9 mph - N/A   Overcast